[[{"header":{"parameterUnit":"m.s-1","parameterCategory":1,"la1":30.2991,"la2":30.254,"lo1":-89.0895,"lo2":-89.0444,"dy":0.0017,"dx":0.0017,"nx":28,"ny":28,"refTime":"2023-10-11T09:00:00:Z","depth":0,"parameterNumber":2,"parameterNumberName":"U-component_of_WINDS"},"data":[0,0,0,0,0,0,0,0,0,0,0,0,0,0,0,0,0,0,0,0,0,0,0,0,0,0,0,0,0,0,0,0,0,0,0,0,0,0,0,0,0,0,0,0,0,0,0,0,0,0,0,0,0,0,0,0,0,0,-2.7151,-2.7153,0,-2.7338,-2.734,-2.7342,-2.7297,-2.7293,-2.7289,-2.7286,-2.7485,-2.7494,-2.7502,0,0,0,0,0,0,0,0,0,0,0,0,0,-2.6763,-2.677,-2.7151,-2.7154,-2.7156,-2.7338,-2.734,-2.7343,-2.7297,-2.7293,-2.7288,-2.7284,-2.7482,-2.7493,-2.7503,0,0,0,0,0,0,0,0,0,0,0,0,0,-2.6939,-2.6773,-2.7151,-2.7155,-2.7157,-2.7337,-2.734,-2.7344,-2.7298,-2.7293,-2.7287,-2.7282,-2.7479,-2.7492,-2.7505,-2.7695,0,0,-2.7545,-2.755,0,0,0,0,0,0,0,0,-2.6929,-2.6953,-2.7152,-2.7155,-2.7158,-2.7288,-2.7276,-2.7462,-2.73,-2.7245,-2.7286,-2.728,-2.7425,-2.7442,-2.7489,-2.7704,-2.7713,-2.7546,-2.7554,-2.7559,-2.7563,0,0,0,0,0,0,0,-2.6917,-2.6945,-2.7225,-2.7155,-2.7159,-2.715,-2.7169,-2.7311,-2.7364,-2.7249,-2.7246,-2.7269,-2.7425,-2.7477,-2.7494,-2.7716,-2.7545,-2.7557,-2.7565,-2.757,-2.8099,-2.8105,0,0,0,0,0,0,-2.6901,-2.6935,-2.7219,-2.7231,-2.7027,-2.7161,-2.7183,-2.7252,-2.7362,-2.7373,-2.7273,-2.7266,-2.7457,-2.7478,-2.75,-2.7733,-2.7559,-2.7571,-2.7579,-2.8093,-2.81,-2.8107,0,0,0,0,0,0,-2.6893,-2.6927,-2.7212,-2.7082,-2.7118,-2.7174,-2.7252,-2.7259,-2.731,-2.738,-2.739,-2.7316,-2.7454,-2.7482,-2.7647,-2.7739,-2.7577,-2.7589,-2.8086,-2.8095,-2.8104,-2.8198,0,0,0,0,0,0,-2.6882,-2.6924,-2.6995,-2.7084,-2.7125,-2.7353,-2.7258,-2.7266,-2.7332,-2.7324,-2.7422,-2.7433,-2.7452,-2.7628,-2.766,-2.7754,-2.7599,-2.8078,-2.809,-2.8101,-2.8187,-2.8209,-2.8228,0,0,0,0,0,-2.6868,-2.7016,-2.6999,-2.7034,-2.7214,-2.7358,-2.7382,-2.7398,-2.7339,-2.7413,-2.7458,-2.743,-2.7723,-2.7645,-2.7681,-2.7781,-2.8072,-2.8086,-2.81,-2.8178,-2.8205,-2.8228,0,0,0,0,0,0,-2.6939,-2.7027,-2.701,-2.719,-2.7267,-2.735,-2.7443,-2.7426,-2.7523,-2.7512,-2.7529,-2.7552,-2.7721,-2.7767,-2.7678,-2.7972,-2.7889,-2.7911,-2.7936,-2.7963,-2.7983,-2.797,-2.761,0,0,0,0,0,-2.6974,-2.7081,-2.7154,-2.7306,-2.7345,-2.7388,-2.7451,-2.7456,-2.7538,-2.7571,-2.7628,-2.771,-2.7821,-2.7894,-2.7999,-2.8192,-2.8215,-2.8278,-2.8299,-2.8316,-2.8336,-2.8445,-2.8475,-2.8153,-2.8153,-2.8153,0,0,-2.7051,-2.7112,-2.718,-2.7321,-2.7382,-2.7495,-2.7416,-2.7538,-2.7624,-2.759,-2.775,-2.7794,-2.7888,-2.8068,-2.815,-2.8111,-2.8429,-2.8334,-2.8346,-2.8358,-2.8462,-2.8493,-2.852,-2.8163,-2.8161,-2.8159,0,0,-2.7249,-2.7304,-2.7438,-2.75,-2.7591,-2.7618,-2.765,-2.7737,-2.7765,-2.7924,-2.7902,-2.8005,-2.8194,-2.8263,-2.8322,-2.8546,-2.8526,-2.858,-2.869,-2.8796,-2.8821,-2.8844,-2.8928,-2.8957,-2.8598,-2.8599,-2.8599,0,-2.7333,-2.7501,-2.751,-2.7635,-2.77,-2.7671,-2.7809,-2.7869,-2.7992,-2.8038,-2.7991,-2.823,-2.829,-2.8488,-2.8543,-2.859,-2.8631,-2.857,-2.8816,-2.8839,-2.886,-2.8941,-2.8971,-2.8605,-2.8604,-2.8604,-2.8603,0,-2.7602,-2.7718,-2.7816,-2.7933,-2.8008,-2.8139,-2.8171,-2.8246,-2.8244,-2.8277,-2.8442,-2.8513,-2.8634,-2.868,-2.8681,-2.8879,-2.8853,-2.8811,-2.8729,-2.8897,-2.8973,-2.9003,-2.8614,-2.8612,-2.861,-2.8608,0,0,-2.7852,-2.7971,-2.8007,-2.8061,-2.8159,-2.8251,-2.8381,-2.8497,-2.8563,-2.8648,-2.8761,-2.8922,-2.8884,-2.8952,-2.8959,-2.9051,-2.9229,-2.8999,-2.9002,-2.9043,-2.9456,-2.949,-2.9525,-2.9214,-2.922,-2.9225,-2.945,0,-2.8061,-2.8289,-2.8301,-2.8509,-2.8619,-2.8594,-2.8708,-2.8783,-2.8817,-2.8917,-2.8956,-2.9071,-2.9011,-2.9052,-2.9141,-2.9188,-2.9313,-2.9171,-2.9324,-2.9329,-2.9305,-2.9564,-2.9599,-2.9809,-2.9479,-2.9484,-2.9488,0,-2.8337,-2.8428,-2.8647,-2.8731,-2.8778,-2.888,-2.8988,-2.9083,-2.9168,-2.9187,-2.9262,-2.9257,-2.9394,-2.9304,-2.9496,-2.94,-2.9462,-2.9495,-2.9503,-2.9522,-2.9421,-2.9593,-2.9875,-2.9908,-2.9534,-2.953,-2.9527,0,-2.8502,-2.868,-2.8834,-2.888,-2.8981,-2.9055,-2.9101,-2.918,-2.9249,-2.9344,-2.939,-2.95,-2.9562,-2.9649,-2.9675,-2.9606,-2.9867,-2.9779,-2.989,-2.989,-2.995,-2.9947,-3.025,-2.9984,-2.9983,-2.9982,-2.9982,0,-2.8737,-2.8873,-2.891,-2.9006,-2.9158,-2.9171,-2.9322,-2.9364,-2.9435,-2.954,-2.9524,-2.9625,-2.965,-2.9757,-2.9778,-2.9935,-2.9962,-2.9984,-2.9989,-2.9988,-2.9986,-3.0033,-3.002,-2.9991,-2.9989,-2.9987,-2.9986,0,-2.8949,-2.8978,-2.9146,-2.9227,-2.9251,-2.936,-2.9431,-2.9525,-2.9556,-2.969,-2.9722,-2.9773,-2.9897,-2.993,-3.0079,-3.0093,-3.028,-3.0269,-3.0251,-3.0252,-3.0363,-3.0354,-3.0711,-3.076,-3.0457,-3.046,-3.0462,0,-2.9098,-2.9202,-2.9294,-2.9362,-2.9411,-2.9521,-2.9592,-2.9609,-2.9683,-2.9788,-2.987,-2.9991,-3.0089,-3.0289,-3.0341,-3.0456,-3.045,-3.0567,-3.0468,-3.0464,-3.0457,-3.0452,-3.0465,-3.0588,-3.0591,-3.0594,-3.0596,0,-2.9363,-2.9372,-2.9472,-2.9579,-2.9663,-2.9748,-2.983,-2.9887,-2.9916,-3.0001,-3.0126,-3.0202,-3.0353,-3.0476,-3.0591,-3.0642,-3.0627,-3.0626,-3.0659,-3.0661,-3.0648,-3.066,-3.0307,-3.0619,-3.0616,-3.0615,-3.0613,-3.0613,-2.9551,-2.9643,-2.9722,-2.9835,-2.9898,-2.9975,-3.0067,-3.0109,-3.0213,-3.0336,-3.034,-3.0477,-3.0562,-3.0715,-3.0772,-3.0882,-3.0847,-3.0893,-3.0906,-3.0918,-3.0929,-3.0626,-3.0902,-3.0902,-3.0901,-3.09,-3.09,0,-2.9818,-2.9867,-2.997,-3.0085,-3.0174,-3.0147,-3.0236,-3.0314,-3.0434,-3.0513,-3.0609,-3.0755,-3.0873,-3.0934,-3.1052,-3.1129,-3.1125,-3.116,-3.1157,-3.117,-3.0952,-3.0913,-3.1161,-3.1161,-3.1161,-3.1161,-3.1161,-3.1161,-2.9967,-3.0122,-3.0141,-3.0328,-3.0377,-3.051,-3.0564,-3.0636,-3.0699,-3.0861,-3.0958,-3.0996,-3.1069,-3.1192,-3.1301,-3.1316,-3.1363,-3.1403,-3.1415,-3.1211,-3.1184,-3.1159,-3.1124,-3.1412,-3.1412,-3.1624,-3.1626,-3.1627]},{"header":{"parameterUnit":"m.s-1","parameterCategory":1,"la1":30.2991,"la2":30.254,"lo1":-89.0895,"lo2":-89.0444,"dy":0.0017,"dx":0.0017,"nx":28,"ny":28,"refTime":"2023-10-11T09:00:00:Z","depth":0,"parameterNumber":3,"parameterNumberName":"V-component_of_WINDS"},"data":[0,0,0,0,0,0,0,0,0,0,0,0,0,0,0,0,0,0,0,0,0,0,0,0,0,0,0,0,0,0,0,0,0,0,0,0,0,0,0,0,0,0,0,0,0,0,0,0,0,0,0,0,0,0,0,0,0,0,-5.4997,-5.4997,0,-5.4973,-5.4972,-5.4972,-5.4872,-5.487,-5.4868,-5.4865,-5.4842,-5.4843,-5.4845,0,0,0,0,0,0,0,0,0,0,0,0,0,-5.4959,-5.496,-5.4997,-5.4997,-5.4997,-5.4973,-5.4972,-5.4972,-5.4873,-5.487,-5.4867,-5.4864,-5.4841,-5.4843,-5.4845,0,0,0,0,0,0,0,0,0,0,0,0,0,-5.4959,-5.4961,-5.4997,-5.4944,-5.4939,-5.4973,-5.4972,-5.4972,-5.4873,-5.487,-5.4866,-5.4863,-5.4841,-5.4843,-5.4845,-5.4929,0,0,-5.4852,-5.4853,0,0,0,0,0,0,0,0,-5.4959,-5.4961,-5.4952,-5.4948,-5.4942,-5.4922,-5.495,-5.4957,-5.4874,-5.4898,-5.4865,-5.4861,-5.4871,-5.4871,-5.4874,-5.4927,-5.4926,-5.4852,-5.4854,-5.4855,-5.4855,0,0,0,0,0,0,0,-5.4959,-5.4961,-5.4988,-5.4952,-5.4946,-5.4922,-5.4918,-5.4951,-5.4905,-5.4896,-5.4889,-5.4887,-5.4868,-5.4872,-5.4873,-5.4926,-5.4852,-5.4854,-5.4856,-5.4857,-5.5045,-5.5048,0,0,0,0,0,0,-5.4967,-5.4962,-5.4988,-5.4987,-5.4942,-5.4925,-5.4921,-5.4932,-5.4904,-5.4896,-5.489,-5.4882,-5.487,-5.487,-5.4871,-5.4966,-5.4855,-5.4857,-5.4858,-5.5041,-5.5046,-5.505,0,0,0,0,0,0,-5.4966,-5.497,-5.4989,-5.4972,-5.4973,-5.493,-5.4943,-5.4933,-5.4937,-5.4899,-5.4891,-5.4903,-5.4867,-5.4868,-5.4915,-5.4964,-5.4858,-5.486,-5.5037,-5.5043,-5.5048,-5.5157,0,0,0,0,0,0,-5.4966,-5.4971,-5.5002,-5.4974,-5.4974,-5.5033,-5.4946,-5.4935,-5.4941,-5.4931,-5.4909,-5.4902,-5.4864,-5.4912,-5.4917,-5.4965,-5.4862,-5.5032,-5.504,-5.5046,-5.5148,-5.5165,-5.5179,0,0,0,0,0,-5.4965,-5.5034,-5.5004,-5.5008,-5.5012,-5.5036,-5.5036,-5.4991,-5.4946,-5.4977,-5.4952,-5.4903,-5.4958,-5.4917,-5.4922,-5.4972,-5.5029,-5.5038,-5.5045,-5.5141,-5.5162,-5.5179,0,0,0,0,0,0,-5.507,-5.503,-5.4996,-5.5058,-5.5051,-5.5019,-5.5057,-5.5015,-5.5021,-5.5012,-5.4956,-5.4952,-5.5006,-5.4993,-5.4949,-5.505,-5.4985,-5.4995,-5.5056,-5.5075,-5.509,-5.5092,-5.4864,0,0,0,0,0,-5.5101,-5.5123,-5.5087,-5.5145,-5.5143,-5.5101,-5.511,-5.5076,-5.5066,-5.5063,-5.5042,-5.5036,-5.5051,-5.5062,-5.5075,-5.5146,-5.5139,-5.5183,-5.5198,-5.5211,-5.522,-5.5255,-5.5274,-5.5077,-5.5076,-5.5076,0,0,-5.5164,-5.5145,-5.5162,-5.5166,-5.5157,-5.5181,-5.5099,-5.5129,-5.5146,-5.5068,-5.511,-5.5094,-5.5083,-5.5142,-5.5167,-5.5133,-5.5273,-5.5221,-5.5232,-5.5234,-5.5266,-5.5284,-5.5301,-5.5082,-5.5081,-5.508,0,0,-5.5292,-5.528,-5.5326,-5.5318,-5.5305,-5.5276,-5.5287,-5.5261,-5.5248,-5.5289,-5.523,-5.525,-5.5278,-5.5272,-5.5273,-5.5397,-5.5351,-5.5403,-5.5483,-5.5519,-5.5534,-5.5548,-5.5591,-5.5607,-5.5412,-5.5412,-5.5412,0,-5.5372,-5.5406,-5.5356,-5.5389,-5.5392,-5.5321,-5.5367,-5.5362,-5.5354,-5.5358,-5.532,-5.5353,-5.534,-5.5396,-5.5426,-5.543,-5.544,-5.5405,-5.5536,-5.5549,-5.5561,-5.5601,-5.5618,-5.5418,-5.5417,-5.5417,-5.5416,0,-5.5505,-5.553,-5.5569,-5.5562,-5.5569,-5.5609,-5.5564,-5.5578,-5.5543,-5.5518,-5.556,-5.5543,-5.555,-5.5561,-5.5527,-5.5612,-5.5591,-5.5546,-5.5479,-5.5587,-5.5624,-5.5639,-5.5427,-5.5425,-5.5423,-5.5421,0,0,-5.57,-5.5662,-5.5678,-5.5672,-5.5652,-5.567,-5.5706,-5.5712,-5.5724,-5.5721,-5.5749,-5.5774,-5.5731,-5.5732,-5.5698,-5.5729,-5.5827,-5.5679,-5.5678,-5.5706,-5.5917,-5.5951,-5.597,-5.5796,-5.5799,-5.5801,-5.5918,0,-5.582,-5.5879,-5.5834,-5.5901,-5.5923,-5.5855,-5.5886,-5.5877,-5.5855,-5.587,-5.5845,-5.5863,-5.5806,-5.5806,-5.5834,-5.5809,-5.5868,-5.58,-5.5822,-5.5824,-5.5826,-5.5989,-5.6025,-5.6136,-5.5932,-5.5935,-5.5936,0,-5.5969,-5.597,-5.604,-5.6012,-5.602,-5.6049,-5.605,-5.6065,-5.6053,-5.6034,-5.6035,-5.5991,-5.6025,-5.596,-5.6005,-5.5959,-5.5966,-5.5955,-5.5958,-5.5958,-5.5886,-5.5993,-5.617,-5.6187,-5.5959,-5.5957,-5.5956,0,-5.6102,-5.6122,-5.6165,-5.6163,-5.6133,-5.6155,-5.6143,-5.6128,-5.6133,-5.6135,-5.6138,-5.6143,-5.6146,-5.6152,-5.6111,-5.6067,-5.6161,-5.6093,-5.6146,-5.6147,-5.6169,-5.6168,-5.6349,-5.6175,-5.6174,-5.6174,-5.6174,0,-5.6241,-5.6286,-5.6224,-5.6251,-5.6298,-5.6246,-5.6295,-5.6277,-5.6263,-5.6285,-5.6227,-5.6249,-5.6194,-5.621,-5.6179,-5.622,-5.6222,-5.6208,-5.6199,-5.6213,-5.6215,-5.6216,-5.6207,-5.6178,-5.6177,-5.6176,-5.6176,0,-5.6398,-5.6359,-5.6401,-5.6369,-5.6361,-5.6398,-5.637,-5.6393,-5.6367,-5.6395,-5.6399,-5.6357,-5.6373,-5.6333,-5.6343,-5.6321,-5.6381,-5.636,-5.6385,-5.6378,-5.6434,-5.6429,-5.6622,-5.6644,-5.6456,-5.6458,-5.646,0,-5.6489,-5.6522,-5.6492,-5.6502,-5.6493,-5.651,-5.6515,-5.6465,-5.6473,-5.6461,-5.6486,-5.6496,-5.6502,-5.6531,-5.6502,-5.6509,-5.6487,-5.6554,-5.6488,-5.6501,-5.6487,-5.6486,-5.6488,-5.6568,-5.657,-5.6572,-5.6574,0,-5.6655,-5.6633,-5.6642,-5.6645,-5.6652,-5.6652,-5.6647,-5.6659,-5.6605,-5.6617,-5.6632,-5.6636,-5.6646,-5.6657,-5.6658,-5.6646,-5.6602,-5.6595,-5.6607,-5.6622,-5.6634,-5.6627,-5.6421,-5.6591,-5.6589,-5.6588,-5.6587,-5.6586,-5.6781,-5.6806,-5.6788,-5.68,-5.6791,-5.6788,-5.6808,-5.6783,-5.6794,-5.6797,-5.6767,-5.6788,-5.6774,-5.677,-5.6763,-5.6779,-5.6748,-5.6767,-5.6771,-5.6776,-5.6785,-5.6632,-5.6779,-5.6778,-5.6778,-5.6777,-5.6777,0,-5.6942,-5.6927,-5.6938,-5.6933,-5.6943,-5.6898,-5.6891,-5.6902,-5.6921,-5.6911,-5.6917,-5.6934,-5.6944,-5.6916,-5.6922,-5.694,-5.692,-5.6943,-5.6941,-5.6939,-5.6813,-5.6801,-5.696,-5.696,-5.696,-5.696,-5.6959,-5.6959,-5.7027,-5.7066,-5.7043,-5.7077,-5.7061,-5.7081,-5.708,-5.7077,-5.7068,-5.7089,-5.7097,-5.7078,-5.7061,-5.7065,-5.7072,-5.7063,-5.7068,-5.7099,-5.7083,-5.6966,-5.6948,-5.6931,-5.6919,-5.7101,-5.7101,-5.7208,-5.7209,-5.721]}]]